Погода в Нурлате

Россия / Республика Татарстан     54°25′41″N   50°48′17″E
темп.,
°C
ветер,
м/с
пор.,
м/с
влажн.,
%
обл.,
%
осадки,
мм/ч
давл.,
гПа
погр.,
м
7 марта, вс
вс700:00−16юз22889 0.0 101320
03:00−16юз228738 0.0 101220
06:00−18зюз229554 0.0 101220
09:00−14юз239548 0.0 1012106
12:00−11юз359566 0.0 1011287
15:00−10ююз469583 0.1 1010287
18:00−12ю4109488 0.0 1008191
21:00−9ююз7139094 0.0 1006600
8 марта, пн
пн800:00−8ююз81594100 0.9 1002854
03:00−5ююз91594100 2.7 9991047
06:00−5ююз91594100 1.3 996887
09:00−2зюз81293100 2.9 997910
12:00−4зюз587833 0.0 1000714
15:00−5ююз5118462 0.0 1002625
18:00−6ююз51185100 0.0 1001243
21:00−7ююз489387 0.0 1000156
9 марта, вт
вт900:00−6зюз7129184 0.1 1000442
03:00−8зюз499691 0.3 1002243
06:00−13зюз479792 0.1 1005123
09:00−12з359696 0.1 1006231
12:00−9з359299 0.0 1008442
15:00−9зсз4690100 0.1 1009599
18:00−15зсз349586 0.0 100962
21:00−18зсз349867 0.1 101240
10 марта, ср
ср1000:00−19зсз349998 0.0 101249
03:00−21зсз349993 0.1 101251
06:00−22зсз349988 0.0 101453
09:00−19сз469592 0.1 1015326
12:00−17сз4691100 0.0 1016504
15:00−18сз5791100 0.1 1016515
18:00−22зсз3697100 0.0 1018123
21:00−24сз349999 0.1 102153
11 марта, чт
чт1100:00−27сз339622 0.0 102121
03:00−28з349822 0.0 102329
06:00−27зюз349963 0.0 102366
09:00−23зюз479673 0.0 1024265
12:00−17зюз589396 0.0 1024394
15:00−15з599198 0.0 1024414
18:00−19зюз479772 0.0 1025109
21:00−20зюз459856 0.0 102779